Location: Eyeline Observatory
(43.2182°N, 78.8632°W)
Time: 15:03:14
(UTC-04:00)

Envisat - Pass Details

Date: 09 October 2017
Orbit: 764 x 766 km, 98.2° (Epoch: 22 October)

Event Time Altitude Azimuth Distance (km) Brightness Sun altitude
Exits shadow 21:44:40 37° 267° (W) 1,177 4.2 -33.4°
Drops below altitude 10° 21:49:13 10° 331° (NNW) 2,310 6.1 -34.1°
Sets 21:51:43 0° 339° (NNW) 3,241 6.8 -34.5°
